KINEIS-4E

Last updated on Mon Sep 21 2026 00:02:54 GMT+0000 (Coordinated Universal Time)

1 63300U 25056A 26263.59875777 .00000962 00000+0 15973-3 0 9998 2 63300 97.9144 24.9052 0001533 165.0812 195.0442 14.72319630 81162
UTC large
Height (km)
Speed (km/s)
/
Latitude / Longitude
Inclination (degrees)
Orbital Period (minutes)
Azimuth
Elevation
Range (km)
Doppler Factor

Next 0 passes for location: London (51.5072 / 0.1276)

No passes found over London.
KINEIS-4E